GW1874 Weather Reports


time (UTC)temp
C
wind
direction
speed
KPH
gust
KPH
rain 1hr
cm
rain 24hr
cm
rain mn
cm
humidity
%
barometer
mb
20260503200414 18 278 0.0 0.0 0.00 0.00 0.00 61 1017.0
20260503195911 17 331 0.0 0.0 0.00 0.00 0.00 66 1017.1
20260503195409 17 284 0.0 0.0 0.00 0.00 0.00 66 1017.1
20260503194905 17 4 0.0 0.0 0.00 0.00 0.00 66 1017.3
20260503194402 17 319 0.0 0.0 0.00 0.00 0.00 67 1017.2
20260503193858 16 317 0.0 0.0 0.00 0.00 0.00 67 1017.3
20260503193353 17 346 0.0 0.0 0.00 0.00 0.00 68 1017.2
20260503192849 17 311 0.0 0.0 0.00 0.00 0.00 65 1017.2
20260503192345 17 324 0.0 0.0 0.00 0.00 0.00 65 1017.1
20260503191842 17 327 0.0 0.0 0.00 0.00 0.00 63 1017.0
20260503191339 18 338 0.0 0.0 0.00 0.00 0.00 64 1017.3
20260503190835 17 326 0.0 0.0 0.00 0.00 0.00 65 1017.3
20260503190332 17 302 0.0 0.0 0.00 0.00 0.00 67 1017.2
20260503185829 17 312 0.0 0.0 0.00 0.00 0.00 66 1017.3
20260503185325 17 279 0.0 0.0 0.00 0.00 0.00 65 1017.5
20260503184820 17 330 0.0 0.0 0.00 0.00 0.00 67 1017.3
20260503184316 17 322 0.0 0.0 0.00 0.00 0.00 66 1017.2
20260503183812 18 304 0.0 0.0 0.00 0.00 0.00 64 1017.2
20260503183309 17 326 0.0 0.0 0.00 0.00 0.00 63 1017.2
20260503182807 17 302 0.0 0.0 0.00 0.00 0.00 65 1017.1
20260503182306 17 328 0.0 0.0 0.00 0.00 0.00 65 1017.0
20260503181803 17 310 0.0 0.0 0.00 0.00 0.00 66 1016.8
20260503181300 18 286 0.0 0.0 0.00 0.00 0.00 63 1017.0
20260503180756 17 287 0.0 0.0 0.00 0.00 0.00 64 1017.0
20260503180254 17 326 0.0 0.0 0.00 0.00 0.00 66 1017.0
20260503175750 17 316 0.0 0.0 0.00 0.00 0.00 67 1017.3
20260503175248 17 326 0.0 0.0 0.00 0.00 0.00 67 1017.0
20260503174744 17 325 0.0 0.0 0.00 0.00 0.00 67 1017.2
20260503174242 17 241 0.0 0.0 0.00 0.00 0.00 67 1017.0
20260503173742 17 227 0.0 0.0 0.00 0.00 0.00 67 1017.2
20260503173238 17 341 0.0 0.0 0.00 0.00 0.00 68 1017.0
20260503172735 16 340 0.0 0.0 0.00 0.00 0.00 68 1017.3
20260503172232 15 331 0.0 0.0 0.00 0.00 0.00 71 1017.1
20260503171729 16 313 0.0 0.0 0.00 0.00 0.00 70 1017.0
20260503171226 16 337 0.0 0.0 0.00 0.00 0.00 70 1017.0
20260503170723 15 330 0.0 0.0 0.00 0.00 0.00 72 1017.1
20260503170220 15 315 0.0 0.0 0.00 0.00 0.00 74 1017.1
20260503160142 14 324 0.0 0.0 0.00 0.00 0.00 76 1016.9
20260503150612 13 335 0.0 0.0 0.00 0.00 0.00 81 1016.3
20260503150108 12 327 0.0 0.0 0.00 0.00 0.00 80 1016.5
20260503131001 12 322 0.0 0.0 0.00 0.00 0.00 84 1015.1
20260503130459 12 340 0.0 0.0 0.00 0.00 0.00 85 1014.8
20260503110350 12 322 0.0 0.0 0.00 0.00 0.00 81 1015.0
20260503090235 12 326 0.0 0.0 0.00 0.00 0.00 83 1015.4
20260503081202 12 324 0.0 0.0 0.00 0.00 0.00 82 1015.9
20260503080658 12 324 0.0 0.0 0.00 0.00 0.00 83 1016.1
20260503080155 12 324 0.0 0.0 0.00 0.00 0.00 83 1015.8
20260503072632 12 316 0.0 0.0 0.00 0.00 0.00 83 1015.8
20260503072129 12 319 0.0 0.0 0.00 0.00 0.00 83 1016.0
20260503071626 12 326 0.0 0.0 0.00 0.00 0.00 83 1015.8
20260503071122 12 312 0.0 0.0 0.00 0.00 0.00 82 1015.9
20260503070619 12 330 0.0 0.0 0.00 0.00 0.00 83 1016.0
20260503070118 12 324 0.0 0.0 0.00 0.00 0.00 83 1015.8
20260503055038 12 323 0.0 0.0 0.00 0.00 0.00 83 1016.5
20260503054534 12 336 0.0 0.0 0.00 0.00 0.00 83 1016.5
20260503054031 12 328 0.0 0.0 0.00 0.00 0.00 83 1016.7
20260503053529 12 324 0.0 0.0 0.00 0.00 0.00 83 1016.7
20260503053027 12 324 0.0 0.0 0.00 0.00 0.00 84 1016.3
20260503052523 12 284 0.0 0.0 0.00 0.00 0.00 83 1016.5
20260503052019 12 324 0.0 0.0 0.00 0.00 0.00 84 1016.4
20260503051515 12 301 0.0 0.0 0.00 0.00 0.00 83 1016.4
20260503051013 12 331 0.0 0.0 0.00 0.00 0.00 84 1016.4
20260503050508 12 303 0.0 0.0 0.00 0.00 0.00 84 1016.3
20260503050006 12 320 0.0 0.0 0.00 0.00 0.00 84 1016.4
20260503045503 12 297 0.0 0.0 0.00 0.00 0.00 84 1016.3
20260503045000 12 315 0.0 0.0 0.00 0.00 0.00 84 1016.2
20260503044457 12 323 0.0 0.0 0.00 0.00 0.00 84 1016.3
20260503043955 12 323 0.0 0.0 0.00 0.00 0.00 84 1016.3
20260503043450 12 326 0.0 0.0 0.00 0.00 0.00 84 1016.4
20260503042947 12 326 0.0 0.0 0.00 0.00 0.00 84 1016.4
20260503042444 12 326 0.0 0.0 0.00 0.00 0.00 83 1016.3
20260503041941 12 315 0.0 0.0 0.00 0.00 0.00 84 1016.5
20260503041437 12 318 0.0 0.0 0.00 0.00 0.00 83 1016.5
20260503040935 12 320 0.0 0.0 0.00 0.00 0.00 83 1016.5
20260503040432 12 318 0.0 0.0 0.00 0.00 0.00 83 1016.2
20260503035929 12 313 0.0 0.0 0.00 0.00 0.00 83 1016.2
20260503035426 12 295 0.0 0.0 0.00 0.00 0.00 83 1016.0
20260503034924 12 319 0.0 0.0 0.00 0.00 0.00 82 1016.1
20260503034421 12 328 0.0 0.0 0.00 0.00 0.00 82 1016.0
20260503033918 12 308 0.0 0.0 0.00 0.00 0.00 82 1016.1
20260503033415 12 323 0.0 0.0 0.00 0.00 0.00 82 1015.9
20260503032913 12 324 0.0 0.0 0.00 0.00 0.00 82 1015.8
20260503032412 12 323 0.0 0.0 0.00 0.00 0.00 82 1015.6
20260503031909 12 327 0.0 0.0 0.00 0.00 0.00 82 1015.6
20260503031407 12 323 0.0 0.0 0.00 0.00 0.00 82 1015.5
20260503030903 12 308 0.0 0.0 0.00 0.00 0.00 81 1015.6
20260503030359 13 300 0.0 0.0 0.00 0.00 0.00 81 1015.6
20260503025856 13 326 0.0 0.0 0.00 0.00 0.00 81 1015.5
20260503025353 12 325 0.0 0.0 0.00 0.00 0.00 82 1015.4
20260503024850 12 6 0.0 0.0 0.00 0.00 0.00 81 1015.7
20260503024347 13 316 0.0 0.0 0.00 0.00 0.00 80 1015.5
20260503023844 13 309 0.0 0.0 0.00 0.00 0.00 82 1015.4
20260503023341 13 24 0.0 0.0 0.00 0.00 0.00 82 1015.4
20260503022837 13 324 0.0 0.0 0.00 0.00 0.00 81 1015.6
20260503022332 13 326 0.0 0.0 0.00 0.00 0.00 81 1015.4
20260503021829 13 324 0.0 0.0 0.00 0.00 0.00 81 1015.4
20260503021325 13 287 0.0 0.0 0.00 0.00 0.00 81 1015.6
20260503020823 13 354 0.0 0.0 0.00 0.00 0.00 80 1015.6
20260503020321 13 253 0.0 0.0 0.00 0.00 0.00 80 1015.7
20260503015817 13 318 0.0 0.0 0.00 0.00 0.00 81 1015.5
20260503015314 13 317 0.0 0.0 0.00 0.00 0.00 81 1015.6
20260503014809 13 129 0.0 0.0 0.00 0.00 0.00 80 1015.7
20260503014307 13 320 0.0 0.0 0.00 0.00 0.00 80 1015.7
20260503013804 13 322 0.0 0.0 0.00 0.00 0.00 79 1015.8
20260503013302 13 176 0.0 0.0 0.00 0.00 0.00 78 1015.7
20260503012759 13 318 0.0 0.0 0.00 0.00 0.00 78 1015.9
20260503012256 14 342 0.0 0.0 0.00 0.00 0.00 77 1015.8
20260503011753 14 330 0.0 0.0 0.00 0.00 0.00 77 1015.7
20260503011250 14 324 0.0 0.0 0.00 0.00 0.00 76 1016.0
20260503010746 14 322 0.0 0.0 0.00 0.00 0.00 76 1015.8
20260503010243 14 322 0.0 0.0 0.00 0.00 0.00 76 1016.0
20260503005740 14 308 0.0 0.0 0.00 0.00 0.00 75 1015.9
20260503005238 14 314 0.0 0.0 0.00 0.00 0.00 75 1015.9
20260503004733 15 310 0.0 0.0 0.00 0.00 0.00 74 1015.8
20260503004232 15 320 0.0 0.0 0.00 0.00 0.00 74 1015.9
20260503003729 15 321 0.0 0.0 0.00 0.00 0.00 73 1016.0
20260503003226 15 291 0.0 0.0 0.00 0.00 0.00 74 1016.0
20260503002722 15 328 0.0 0.0 0.00 0.00 0.00 73 1015.8
20260503002219 15 174 0.0 0.0 0.00 0.00 0.00 71 1015.9
20260503001715 15 324 0.0 0.0 0.00 0.00 0.00 71 1015.9
20260503001212 16 171 0.0 0.0 0.00 0.00 0.00 69 1015.8
20260503000710 16 345 0.0 0.0 0.00 0.00 0.00 70 1015.8
20260503000207 17 310 0.0 0.0 0.00 0.00 0.00 68 1016.0
20260502235704 16 341 0.0 0.0 0.00 0.00 0.00 70 1016.0
20260502235202 16 341 0.0 0.0 0.00 0.00 0.00 67 1015.8
20260502234658 16 338 0.0 0.0 0.00 0.00 0.00 69 1015.9
20260502234155 17 254 0.0 0.0 0.00 0.00 0.00 67 1016.0
20260502233651 17 325 0.0 0.0 0.00 0.00 0.00 66 1015.9
20260502233148 17 266 0.0 0.0 0.00 0.00 0.00 67 1016.0
20260502232644 17 321 0.0 0.0 0.00 0.00 0.00 65 1016.0
20260502232141 17 322 0.0 0.0 0.00 0.00 0.00 67 1016.1
20260502231638 17 353 0.0 0.0 0.00 0.00 0.00 66 1015.9
20260502231136 17 351 0.0 0.0 0.00 0.00 0.00 66 1016.1
20260502230634 17 301 0.0 0.0 0.00 0.00 0.00 65 1016.2
20260502230132 17 170 0.0 0.0 0.00 0.00 0.00 64 1016.3
20260502225627 18 264 0.0 0.0 0.00 0.00 0.00 64 1016.3
20260502225125 17 268 0.0 0.0 0.00 0.00 0.00 65 1016.7
20260502224621 17 339 0.0 0.0 0.00 0.00 0.00 65 1016.5
20260502224118 17 22 0.0 0.0 0.00 0.00 0.00 65 1016.7
20260502223615 18 188 0.0 0.0 0.00 0.00 0.00 65 1016.4
20260502223114 18 202 0.0 0.0 0.00 0.00 0.00 65 1016.9
20260502222611 18 345 0.0 0.0 0.00 0.00 0.00 67 1016.7
20260502222107 18 305 0.0 0.0 0.00 0.00 0.00 64 1016.9
20260502221603 18 289 0.0 0.0 0.00 0.00 0.00 65 1016.8
20260502221100 18 0 0.0 0.0 0.00 0.00 0.00 63 1016.8
20260502220556 18 25 0.0 0.0 0.00 0.00 0.00 63 1016.8
20260502220053 19 288 0.0 0.0 0.00 0.00 0.00 64 1016.9
20260502215550 18 302 0.0 0.0 0.00 0.00 0.00 66 1017.0
20260502215047 18 330 0.0 0.0 0.00 0.00 0.00 67 1017.0
20260502214544 17 322 0.0 0.0 0.00 0.00 0.00 69 1017.1
20260502214041 17 323 0.0 0.0 0.00 0.00 0.00 68 1017.2
20260502213538 18 329 0.0 0.0 0.00 0.00 0.00 67 1017.0
20260502213036 17 279 0.0 0.0 0.00 0.00 0.00 68 1017.0
20260502212534 18 256 0.0 0.0 0.00 0.00 0.00 69 1017.0
20260502212032 17 312 0.0 0.0 0.00 0.00 0.00 72 1017.3
20260502211527 17 321 0.0 0.0 0.00 0.00 0.00 72 1017.2
20260502211025 17 340 0.0 0.0 0.00 0.00 0.00 71 1017.3
20260502210521 17 286 0.0 0.0 0.00 0.00 0.00 71 1017.4
20260502210018 17 315 0.0 0.0 0.00 0.00 0.00 72 1017.4
20260502205515 17 314 0.0 0.0 0.00 0.00 0.00 71 1017.4
20260502205012 18 322 0.0 0.0 0.00 0.00 0.00 70 1017.3
20260502204509 18 292 0.0 0.0 0.00 0.00 0.00 69 1017.3
20260502204007 18 268 0.0 0.0 0.00 0.00 0.00 69 1017.5
20260502203503 18 322 0.0 0.0 0.00 0.00 0.00 70 1017.3
20260502203000 18 302 0.0 0.0 0.00 0.00 0.00 68 1017.3
20260502202456 18 328 0.0 0.0 0.00 0.00 0.00 69 1017.4
20260502201955 18 234 0.0 0.0 0.00 0.00 0.00 69 1017.5
20260502201450 18 337 0.0 0.0 0.00 0.00 0.00 69 1017.6
20260502200947 18 190 0.0 0.0 0.00 0.00 0.00 69 1017.6